星链-36621(STARLINK-36621)

导读

STARLINK-36621是美国SpaceX星链互联网星座的一员,于2026年1月25日发射入轨。星链计划通过部署近地轨道卫星群,为全球提供高速低延迟的互联网覆盖,尤其服务偏远地区与网络基础设施匮乏区域,该卫星加入后将进一步扩充星座容量,提升全球组网服务的稳定性与覆盖密度。

Basic Information
目录编号:
67561
目录名称:
STARLINK-36621
国际标识:
2026-016A
轨道中心:
EARTH
卫星名称:
星链-36621
卫星全名:
星链-36621(STARLINK-36621)
卫星状态:
在轨 (已飞行223 天)
发射日期:
2026-01-25 UTC
国别 :
美国 (US)
星等 :
--
Orbit Information
数据来源 国际轨道数据
星历时间: 2026-09-05T05:26:45+0800
15小时前
查看轨道信息
半长轴: 6843.662km
偏心率: 0.0000259
轨道倾角: 97.288°
近地点辐角 161.887°
升交点赤经 306.700°
平近点角 198.239°
近地点: 465.347km
远地点: 465.703km
周期: 93.906分钟
每日圈数: 15.334513
Detailed Information
固有亮度:
5
最大亮度:
2.5
卫星平台:
Starlink V1.0
覆盖范围:
全球
运营商:
太空探索技术公司
运营商所在国:
美国
制造商(研发单位):
太空探索技术公司
制造商所在国:
美国
使用方式:
暂无
Satellite Introduction
Starlink 计划是 SpaceX 推出的全球卫星互联网项目,通过发射低轨道卫星,为全球尤其是偏远地区提供高速、低延迟的互联网服务。自 2019 年起,Starlink 已部署数千颗卫星,旨在缩小全球数字鸿沟,推动互联网普及。该项目还为军事、航空等行业提供通信支持,带来广泛经济效益。
2D Orbit Map
3D Orbit Map
Orbit Altitude Analysis Chart
Orbit Inclination Analysis Chart
Orbit Comprehensive Analysis Chart
View Comprehensive Chart
Conjunction Data List
Event ID Objects TCA Miss Dist (km) Collision Risk Probability Collision Risk Index (CRI) Action
CDM_260905-211905-846606-756121
UHETSAT (58466)
2026-09-05T
21:19:27+0000
0.931 km
远距离
6.364168E-6 低风险 0.51
CDM_260907-213806-624906-756121
2026-09-07T
21:38:25+0000
2.489 km
极远距离
1.742991E-6 低风险 0.4
CDM_260905-104005-248906-756121
2026-09-05T
10:40:33+0000
2.636 km
极远距离
9.605313E-7 极低风险 0.35
CDM_260905-234005-720306-756121
2026-09-05T
23:40:08+0000
2.707 km
极远距离
4.336883E-7 极低风险 0.28